This is the latest recevied weather packets stored in our database for station/object KF6FPU-15. If no packets are shown the sender has not sent any weather packets the latest 10 day(s).
| Time | Temp. | Humidity | Pressure | Rain* | Wind** | Luminosity | Snow |
|---|---|---|---|---|---|---|---|
| 1777849908 | 36.67° C | 17% | 1011.2 hPa | - | - | - | - |
| 1777849308 | 38.89° C | 17% | 1011.2 hPa | - | - | - | - |
| 1777848708 | 39.44° C | 17% | 1011.2 hPa | - | - | - | - |
| 1777848108 | 38.89° C | 17% | 1011.4 hPa | - | - | - | - |
| 1777847508 | 38.89° C | 17% | 1011.3 hPa | - | - | - | - |
| 1777846908 | 38.89° C | 17% | 1011.4 hPa | - | - | - | - |
| 1777846308 | 38.89° C | 17% | 1011.5 hPa | - | - | - | - |
| 1777845708 | 38.89° C | 17% | 1011.7 hPa | - | - | - | - |
| 1777845108 | 38.89° C | 17% | 1011.9 hPa | - | - | - | - |
| 1777843908 | 38.89° C | 18% | 1011.8 hPa | - | - | - | - |
| 1777843308 | 38.33° C | 17% | 1011.7 hPa | - | - | - | - |
| 1777842708 | 38.33° C | 18% | 1011.9 hPa | - | - | - | - |
| 1777842108 | 37.22° C | 18% | 1011.8 hPa | - | - | - | - |
| 1777841508 | 37.78° C | 18% | 1011.7 hPa | - | - | - | - |
| 1777840908 | 37.22° C | 18% | 1011.8 hPa | - | - | - | - |
| 1777840308 | 36.67° C | 18% | 1011.9 hPa | - | - | - | - |
| 1777839708 | 37.22° C | 18% | 1012 hPa | - | - | - | - |
| 1777839108 | 36.11° C | 18% | 1012 hPa | - | - | - | - |
| 1777838508 | 36.11° C | 18% | 1012.1 hPa | - | - | - | - |
| 1777837308 | 33.89° C | 18% | 1012.2 hPa | - | - | - | - |
| 1777836708 | 33.33° C | 19% | 1012.2 hPa | - | - | - | - |
| 1777836108 | 31.67° C | 19% | 1012.3 hPa | - | - | - | - |
| 1777835508 | 29.44° C | 19% | 1012.5 hPa | - | - | - | - |
| 1777834908 | 27.22° C | 20% | 1012.6 hPa | - | - | - | - |
| 1777834308 | 25° C | 19% | 1012.6 hPa | - | - | - | - |
* Rain since midnight (hover to see other rain measurements)
** Current wind speed in m/s (hover to see current wind gust speed)